GW4606 Weather Reports


time (UTC)temp
C
wind
direction
speed
KPH
gust
KPH
rain 1hr
cm
rain 24hr
cm
rain mn
cm
humidity
%
barometer
mb
20260507032716 11 58 1.6 4.8 0.00 1.45 1.45 71 1015.7
20260507032211 11 311 1.6 4.8 0.00 1.45 1.45 71 1015.8
20260507031709 11 295 0.0 6.4 0.00 1.45 1.45 70 1015.6
20260507031205 11 137 3.2 4.8 0.00 1.45 1.45 69 1015.5
20260507030702 11 352 1.6 3.2 0.00 1.45 1.45 71 1015.8
20260507030200 11 352 1.6 3.2 0.00 1.45 1.45 70 1015.7
20260507025657 11 284 3.2 3.2 0.00 1.45 1.45 70 1015.6
20260507025154 11 53 3.2 6.4 0.00 1.45 1.45 70 1015.6
20260507024652 11 278 3.2 3.2 0.00 1.45 1.45 72 1015.6
20260507024149 11 109 0.0 4.8 0.00 1.45 1.45 71 1015.7
20260507023644 11 282 1.6 6.4 0.00 1.45 1.45 71 1015.6
20260507023142 11 250 0.0 4.8 0.00 1.45 1.45 74 1015.5
20260507022639 11 6 1.6 4.8 0.00 1.45 1.45 74 1015.4
20260507022134 11 58 0.0 6.4 0.00 1.45 1.45 74 1015.2
20260507021630 11 255 0.0 1.6 0.00 1.45 1.45 76 1015.2
20260507021125 11 255 0.0 3.2 0.00 1.45 1.45 76 1015.2
20260507020624 11 255 1.6 4.8 0.00 1.45 1.45 75 1014.9
20260507020120 11 255 0.0 4.8 0.00 1.45 1.45 78 1015.1
20260507015619 11 255 0.0 1.6 0.00 1.45 1.45 78 1014.8
20260507015116 11 255 1.6 3.2 0.00 1.45 1.45 77 1015.2
20260507014612 11 255 1.6 4.8 0.00 1.45 1.45 78 1015.1
20260507014108 12 32 1.6 6.4 0.00 1.45 1.45 80 1014.8
20260507013605 11 290 3.2 4.8 0.00 1.45 1.45 80 1014.8
20260507013102 12 316 0.0 0.0 0.00 1.45 1.45 85 1014.9
20260507012559 12 316 0.0 0.0 0.18 1.45 1.45 84 1014.6
20260507012055 12 316 0.0 0.0 0.00 1.42 1.42 86 1014.8
20260507011553 12 316 0.0 0.0 0.00 1.42 1.42 82 1014.4
20260507011049 12 316 0.0 0.0 0.00 1.42 1.42 82 1014.3
20260507010544 12 316 0.0 0.0 0.00 1.42 1.42 84 1014.3
20260507010041 12 316 0.0 0.0 0.00 1.42 1.42 83 1014.0
20260507005539 12 316 0.0 0.0 0.00 1.42 1.42 83 1013.9
20260507005034 12 316 0.0 0.0 0.00 1.42 1.42 84 1014.1
20260507004531 12 316 0.0 0.0 0.00 1.42 1.42 81 1014.0
20260507004024 12 316 0.0 0.0 0.00 1.42 1.42 82 1014.2
20260507003519 12 316 0.0 0.0 0.00 1.42 1.42 82 1013.8
20260507003014 12 316 0.0 0.0 0.00 1.42 1.42 81 1013.9
20260507002511 12 316 0.0 0.0 0.00 1.42 1.42 80 1014.0
20260507002007 12 316 0.0 0.0 0.00 1.42 1.42 81 1013.8
20260507001503 12 316 0.0 0.0 0.00 1.42 1.42 81 1013.6
20260507001001 12 316 0.0 0.0 0.00 1.42 1.42 81 1013.6
20260507000457 12 316 0.0 0.0 0.00 1.42 1.42 80 1013.6
20260506235952 12 316 0.0 0.0 0.00 1.42 1.42 80 1013.8
20260506235450 12 316 0.0 0.0 0.00 1.42 1.42 80 1013.5
20260506234946 13 316 0.0 0.0 0.00 1.42 1.42 79 1013.6
20260506234443 13 316 0.0 0.0 0.00 1.42 1.42 80 1013.6
20260506233941 13 316 0.0 0.0 0.13 1.42 1.42 80 1013.4
20260506233437 13 316 0.0 0.0 0.13 1.42 1.42 81 1013.3
20260506232934 13 316 0.0 0.0 0.00 1.40 1.40 79 1013.4
20260506232430 13 316 0.0 0.0 0.00 1.40 1.40 79 1013.8
20260506231926 13 316 0.0 0.0 0.00 1.40 1.40 79 1014.0
20260506231423 13 316 0.0 0.0 0.00 1.40 1.40 80 1014.1
20260506230920 13 316 0.0 0.0 0.00 1.40 1.40 79 1014.1
20260506230417 13 316 0.0 0.0 0.00 1.40 1.40 81 1013.6
20260506225913 14 316 0.0 0.0 0.00 1.40 1.40 81 1013.4
20260506225411 14 316 0.0 0.0 0.00 1.40 1.40 79 1013.6
20260506224907 14 316 0.0 0.0 0.00 1.40 1.40 76 1013.6
20260506224405 14 316 0.0 0.0 0.00 1.40 1.40 75 1013.6
20260506223900 14 316 0.0 0.0 0.00 1.40 1.40 78 1013.6
20260506223356 14 316 0.0 0.0 0.00 1.40 1.40 78 1013.6
20260506222853 14 316 0.0 0.0 0.18 1.40 1.40 75 1013.5
20260506222349 14 316 0.0 0.0 0.18 1.40 1.40 74 1013.6
20260506221847 14 316 0.0 0.0 0.00 1.37 1.37 77 1013.5
20260506221344 15 317 0.0 0.0 0.00 1.37 1.37 73 1013.6
20260506220842 15 316 0.0 0.0 0.00 1.37 1.37 77 1013.3
20260506220337 15 316 0.0 0.0 0.00 1.37 1.37 75 1013.2
20260506215835 15 317 0.0 0.0 0.00 1.37 1.37 77 1013.3
20260506215330 14 316 0.0 0.0 0.00 1.37 1.37 75 1013.1
20260506214826 14 316 0.0 0.0 0.00 1.37 1.37 76 1013.0
20260506214323 14 316 0.0 0.0 0.00 1.37 1.37 76 1013.0
20260506213821 14 317 0.0 0.0 0.00 1.37 1.37 77 1013.0
20260506213318 15 316 0.0 0.0 0.13 1.37 1.37 77 1013.1
20260506212815 15 316 0.0 0.0 0.00 1.35 1.35 76 1013.2
20260506212312 15 316 0.0 0.0 0.00 1.35 1.35 78 1013.2
20260506211806 15 316 0.0 1.6 0.00 1.35 1.35 76 1013.1
20260506211303 14 316 0.0 0.0 0.00 1.35 1.35 76 1013.3
20260506210800 15 317 0.0 0.0 0.00 1.35 1.35 77 1013.2
20260506210256 15 316 0.0 4.8 0.00 1.35 1.35 80 1012.9
20260506205753 14 316 1.6 4.8 0.00 1.35 1.35 75 1012.9
20260506205249 14 316 0.0 4.8 0.18 1.35 1.35 76 1013.0
20260506204746 15 337 0.0 1.6 0.18 1.35 1.35 78 1013.0
20260506204244 15 337 0.0 3.2 0.00 1.32 1.32 80 1012.9
20260506203741 15 337 0.0 3.2 0.00 1.32 1.32 77 1012.8
20260506203238 14 53 0.0 3.2 0.00 1.32 1.32 79 1012.8
20260506202736 14 54 3.2 9.7 0.00 1.32 1.32 77 1012.8
20260506202232 15 304 8.0 12.9 0.00 1.32 1.32 76 1012.7
20260506201729 15 288 1.6 3.2 0.00 1.32 1.32 77 1012.7
20260506201226 15 288 1.6 4.8 0.13 1.32 1.32 78 1012.5
20260506200723 15 11 0.0 1.6 0.00 1.30 1.30 80 1012.4
20260506200219 15 11 1.6 4.8 0.00 1.30 1.30 79 1012.7
20260506195716 15 11 3.2 4.8 0.00 1.30 1.30 78 1012.6
20260506195213 15 278 4.8 9.7 0.00 1.30 1.30 77 1012.5
20260506194710 16 283 3.2 4.8 0.00 1.30 1.30 76 1012.6
20260506194206 15 283 1.6 3.2 0.18 1.30 1.30 76 1012.7
20260506193659 15 283 0.0 0.0 0.18 1.30 1.30 82 1012.6
20260506193155 14 283 1.6 4.8 0.00 1.27 1.27 79 1012.7
20260506192651 14 278 3.2 6.4 0.00 1.27 1.27 80 1012.8
20260506192147 14 331 1.6 6.4 0.00 1.27 1.27 82 1012.7
20260506191640 14 331 4.8 6.4 0.13 1.27 1.27 81 1012.8
20260506191136 14 331 3.2 6.4 0.13 1.27 1.27 81 1012.6
20260506190633 13 285 1.6 6.4 0.00 1.24 1.24 83 1012.9
20260506190129 14 260 1.6 6.4 0.00 1.24 1.24 83 1012.8
20260506185627 13 260 0.0 3.2 0.00 1.24 1.24 85 1012.8
20260506185123 14 260 3.2 4.8 0.00 1.24 1.24 86 1012.8
20260506184621 13 260 0.0 4.8 0.18 1.24 1.24 86 1012.9
20260506184118 14 260 6.4 9.7 0.18 1.24 1.24 82 1012.8
20260506183614 14 260 0.0 3.2 0.00 1.22 1.22 85 1012.9
20260506183110 13 260 0.0 4.8 0.00 1.22 1.22 85 1012.7
20260506182608 13 260 0.0 1.6 0.00 1.22 1.22 83 1012.8
20260506182105 13 260 0.0 3.2 0.18 1.22 1.22 85 1012.8
20260506181603 13 260 3.2 4.8 0.18 1.22 1.22 85 1012.8
20260506181059 13 260 0.0 3.2 0.00 1.19 1.19 85 1012.9
20260506180556 13 260 1.6 3.2 0.00 1.19 1.19 85 1013.0
20260506180052 13 260 3.2 3.2 0.13 1.19 1.19 87 1013.0
20260506175548 12 260 1.6 6.4 0.13 1.19 1.19 87 1013.1
20260506175045 13 299 0.0 4.8 0.00 1.17 1.17 88 1013.2
20260506174544 13 40 4.8 6.4 0.00 1.17 1.17 85 1013.2
20260506174039 13 40 1.6 3.2 0.18 1.17 1.17 89 1013.2
20260506173537 13 40 0.0 4.8 0.18 1.17 1.17 88 1013.1
20260506173034 13 40 0.0 3.2 0.00 1.14 1.14 88 1013.1
20260506172531 13 329 0.0 3.2 0.00 1.14 1.14 89 1013.1
20260506172027 12 288 3.2 9.7 0.13 1.14 1.14 87 1012.9
20260506171525 13 262 4.8 6.4 0.13 1.14 1.14 90 1013.2
20260506171017 12 262 1.6 4.8 0.00 1.12 1.12 92 1013.0
20260506170514 11 262 3.2 4.8 0.00 1.12 1.12 92 1013.0
20260506170006 11 343 3.2 4.8 0.00 1.12 1.12 94 1013.1
20260506165504 11 270 3.2 9.7 0.18 1.12 1.12 94 1013.2
20260506165000 11 283 1.6 6.4 0.00 1.09 1.09 95 1013.2
20260506164457 11 351 1.6 4.8 0.00 1.09 1.09 95 1013.1
20260506163954 11 351 4.8 9.7 0.00 1.09 1.09 96 1013.3
20260506163449 10 289 3.2 9.7 0.13 1.09 1.09 96 1013.1
20260506162944 10 21 1.6 3.2 0.13 1.09 1.09 97 1013.3
20260506162442 10 291 4.8 12.9 0.00 1.07 1.07 97 1013.1
20260506161934 10 271 3.2 4.8 0.00 1.07 1.07 98 1013.3
20260506161432 10 244 3.2 6.4 0.18 1.07 1.07 98 1013.2
20260506160929 10 276 4.8 11.3 0.18 1.07 1.07 97 1013.2
20260506160426 10 247 3.2 12.9 0.00 1.04 1.04 98 1013.1
20260506155923 10 296 12.9 16.1 0.00 1.04 1.04 98 1012.9
20260506155420 10 253 6.4 11.3 0.18 1.02 1.02 99 1012.6
20260506153542 10 253 6.4 11.3 0.18 1.02 1.02 99 1012.6
20260506153039 10 9 0.0 4.8 0.18 1.02 1.02 99 1012.1
20260506152536 10 9 1.6 3.2 0.00 0.99 0.99 99 1012.3
20260506152034 10 321 0.0 1.6 0.00 0.99 0.99 99 1012.2
20260506151532 9 326 3.2 4.8 0.13 0.99 0.99 99 1012.0
20260506151029 9 314 1.6 4.8 0.13 0.99 0.99 99 1012.1
20260506150525 10 51 0.0 0.0 0.00 0.97 0.97 99 1011.9
20260506150022 9 51 0.0 4.8 0.18 0.97 0.97 99 1011.7
20260506145519 10 293 4.8 9.7 0.18 0.97 0.97 99 1011.6
20260506145017 9 293 3.2 4.8 0.00 0.94 0.94 99 1011.6
20260506144513 9 39 1.6 1.6 0.00 0.94 0.94 99 1011.2
20260506144011 9 43 6.4 9.7 0.13 0.94 0.94 99 1011.5
20260506143508 9 43 6.4 9.7 0.13 0.94 0.94 99 1011.5
20260506143006 9 37 3.2 11.3 0.00 0.91 0.91 99 1011.4
20260506142503 9 297 3.2 9.7 0.18 0.91 0.91 99 1011.4
20260506142001 9 252 3.2 12.9 0.18 0.91 0.91 99 1011.4
20260506141459 9 342 6.4 16.1 0.00 0.89 0.89 99 1011.3
20260506140958 9 233 6.4 11.3 0.00 0.89 0.89 99 1011.1
20260506140454 9 221 3.2 9.7 0.18 0.89 0.89 99 1010.9
20260506135951 9 341 6.4 12.9 0.18 0.89 0.89 99 1010.7
20260506135448 9 342 4.8 14.5 0.00 0.86 0.86 99 1010.1
20260506134944 10 39 6.4 12.9 0.13 0.86 0.86 99 1010.4
20260506134441 10 296 6.4 9.7 0.13 0.86 0.86 99 1010.1
20260506133937 10 336 6.4 11.3 0.00 0.84 0.84 99 1010.3
20260506133434 10 337 6.4 20.9 0.18 0.84 0.84 99 1009.8
20260506132932 11 295 4.8 11.3 0.18 0.84 0.84 99 1009.6
20260506132429 12 324 3.2 12.9 0.00 0.81 0.81 99 1009.6
20260506131926 14 288 6.4 12.9 0.13 0.81 0.81 99 1009.4
20260506131422 14 267 4.8 4.8 0.13 0.81 0.81 99 1008.9
20260506130920 14 237 3.2 6.4 0.00 0.79 0.79 99 1008.8
20260506130416 14 253 6.4 6.4 0.18 0.79 0.79 99 1008.8
20260506125914 13 240 4.8 6.4 0.18 0.79 0.79 99 1008.8
20260506125412 13 225 6.4 11.3 0.00 0.76 0.76 99 1008.7
20260506124910 13 245 4.8 11.3 0.13 0.76 0.76 99 1008.8
20260506124407 13 238 4.8 9.7 0.13 0.76 0.76 99 1008.6
20260506123905 13 217 4.8 9.7 0.00 0.74 0.74 99 1008.8
20260506123403 13 121 1.6 4.8 0.18 0.74 0.74 99 1008.7
20260506122900 13 238 4.8 6.4 0.18 0.74 0.74 99 1008.6
20260506122356 13 240 3.2 9.7 0.00 0.71 0.71 99 1008.7
20260506121854 13 209 1.6 4.8 0.13 0.71 0.71 99 1008.6
20260506121351 13 201 4.8 6.4 0.13 0.71 0.71 99 1008.6
20260506120848 13 194 1.6 6.4 0.18 0.69 0.69 99 1008.5
20260506120346 13 141 1.6 3.2 0.18 0.69 0.69 99 1008.4
20260506115843 13 140 3.2 4.8 0.00 0.66 0.66 99 1008.2
20260506115341 13 253 1.6 3.2 0.13 0.66 0.66 99 1008.3
20260506114839 13 221 3.2 4.8 0.13 0.66 0.66 99 1008.8
20260506114336 13 107 0.0 1.6 0.00 0.64 0.64 99 1008.5
20260506113835 13 230 4.8 9.7 0.18 0.64 0.64 99 1008.4
20260506113332 13 171 0.0 4.8 0.18 0.64 0.64 99 1008.4
20260506112828 13 222 1.6 3.2 0.13 0.61 0.61 99 1008.4
20260506112326 13 282 1.6 4.8 0.13 0.61 0.61 99 1008.2
20260506111823 13 234 3.2 9.7 0.00 0.58 0.58 99 1008.3
20260506111321 13 171 1.6 6.4 0.18 0.58 0.58 99 1008.3
20260506110819 13 118 1.6 6.4 0.18 0.58 0.58 99 1008.1
20260506110315 13 167 0.0 0.0 0.18 0.56 0.56 99 1008.2
20260506105812 13 275 3.2 9.7 0.18 0.56 0.56 99 1008.2
20260506105309 13 267 3.2 4.8 0.00 0.53 0.53 99 1008.2
20260506104806 13 130 4.8 4.8 0.13 0.53 0.53 99 1008.2
20260506104304 13 167 8.0 9.7 0.13 0.53 0.53 99 1008.0
20260506103802 13 208 3.2 4.8 0.18 0.51 0.51 99 1008.0
20260506103259 13 180 3.2 9.7 0.18 0.51 0.51 99 1008.0
20260506102756 13 135 3.2 4.8 0.00 0.48 0.48 99 1008.1
20260506102254 13 153 4.8 6.4 0.13 0.48 0.48 99 1007.9
20260506101751 13 138 6.4 9.7 0.00 0.46 0.46 99 1007.9
20260506101247 13 165 4.8 9.7 0.18 0.46 0.46 99 1007.7
20260506100745 13 129 4.8 6.4 0.18 0.46 0.46 99 1008.0
20260506100243 13 286 0.0 6.4 0.13 0.43 0.43 99 1008.0
20260506095741 13 150 3.2 11.3 0.13 0.43 0.43 99 1008.2
20260506095238 13 145 4.8 6.4 0.18 0.41 0.41 99 1008.2
20260506094734 13 144 3.2 4.8 0.18 0.41 0.41 99 1008.3
20260506094233 13 236 0.0 3.2 0.13 0.38 0.38 99 1008.4
20260506093731 13 154 4.8 6.4 0.13 0.38 0.38 99 1008.2
20260506093227 13 267 0.0 3.2 0.00 0.36 0.36 99 1008.4
20260506092726 13 267 1.6 3.2 0.18 0.36 0.36 99 1008.4
20260506092223 13 267 0.0 1.6 0.00 0.33 0.33 99 1008.4
20260506091720 13 267 1.6 3.2 0.13 0.33 0.33 99 1008.4
20260506091218 13 267 3.2 3.2 0.13 0.33 0.33 99 1008.2
20260506090715 13 267 0.0 1.6 0.18 0.30 0.30 99 1008.1
20260506090212 13 295 1.6 3.2 0.18 0.30 0.30 99 1008.4
20260506085709 13 126 0.0 1.6 0.13 0.28 0.28 99 1008.5
20260506085205 13 214 0.0 3.2 0.13 0.28 0.28 99 1008.5
20260506084702 13 241 0.0 0.0 0.18 0.25 0.25 99 1008.6
20260506084158 13 241 0.0 3.2 0.18 0.25 0.25 99 1008.5
20260506083655 13 259 0.0 4.8 0.18 0.23 0.23 99 1008.5
20260506083153 13 259 3.2 4.8 0.18 0.23 0.23 98 1008.5
20260506082650 13 165 1.6 4.8 0.13 0.20 0.20 98 1008.5
20260506082145 13 227 0.0 4.8 0.13 0.20 0.20 98 1008.4
20260506081644 13 243 1.6 4.8 0.18 0.18 0.18 98 1008.4
20260506081141 13 185 0.0 6.4 0.18 0.18 0.18 98 1008.3
20260506080639 13 170 1.6 3.2 0.13 0.15 0.15 98 1008.7
20260506080135 13 223 1.6 4.8 0.13 0.15 0.15 97 1008.8
20260506073119 14 255 3.2 9.7 0.18 0.08 0.08 94 1009.1
20260506072615 14 238 3.2 4.8 0.00 0.05 0.05 93 1009.3
20260506072114 14 243 3.2 6.4 0.00 0.05 0.05 91 1008.8
20260506071611 15 235 3.2 9.7 0.13 0.05 0.05 90 1008.5
20260506071108 15 232 8.0 11.3 0.13 0.05 0.05 89 1008.5
20260506070605 15 225 4.8 16.1 0.00 0.03 0.03 88 1008.4
20260506062039 15 178 0.0 0.0 0.00 0.03 0.03 84 1008.1
20260506061535 14 178 0.0 0.0 0.00 0.03 0.03 87 1008.1
20260506061033 14 178 0.0 0.0 0.00 0.03 0.03 89 1008.1
20260506060532 14 178 0.0 0.0 0.00 0.03 0.03 88 1008.2
20260506051000 15 236 0.0 3.2 0.18 0.03 0.03 82 1009.2
20260506050458 16 236 0.0 0.0 0.00 0.00 0.00 79 1009.6
20260506044948 16 236 0.0 0.0 0.00 0.00 0.00 73 1009.8
20260506044446 16 236 0.0 1.6 0.00 0.00 0.00 72 1009.6
20260506043943 17 236 0.0 0.0 0.00 0.00 0.00 71 1009.8
20260506043440 17 231 1.6 4.8 0.00 0.00 0.00 70 1009.7
20260506042938 17 241 1.6 4.8 0.00 0.00 0.00 70 1009.7
20260506042437 17 231 1.6 3.2 0.00 0.00 0.00 69 1009.5
20260506041935 17 247 1.6 4.8 0.00 0.00 0.00 70 1009.5
20260506041432 17 253 3.2 3.2 0.00 0.00 0.00 70 1009.6
20260506040929 16 154 0.0 1.6 0.00 0.00 0.00 71 1009.4
20260506040427 16 154 0.0 0.0 0.00 0.00 0.00 71 1009.4
20260506035923 16 154 0.0 0.0 0.00 0.00 0.00 71 1009.5
20260506035421 16 154 0.0 0.0 0.00 0.00 0.00 71 1009.6
20260506034917 16 154 0.0 0.0 0.00 0.00 0.00 72 1009.5
20260506034414 16 154 0.0 0.0 0.00 0.00 0.00 72 1009.4
20260506033911 16 154 0.0 0.0 0.00 0.00 0.00 72 1009.5
20260506033409 16 154 0.0 0.0 0.00 0.00 0.00 73 1009.4